Wind_Speed
6 6 5 5 4 4 3 4 6 5 4 3 3 3 3 4 5 7 7 8 8 8 8 8 9 9 8 8 7 7 6 6 5 5 5 5 6 6 7 7 7 7 7 7 7 6 6 5 5
7 7 7 6 6 5 4 5 6 6 6 6 5 4 4 4 5 6 7 8 9 9 9 10 10 10 10 9 9 8 8 7 7 6 6 6 6 7 7 7 7 7 7 7 7 6 6 5 4
8 9 8 8 7 6 6 6 6 6 6 6 6 6 6 6 6 7 7 8 9 10 11 12 12 11 11 10 10 9 9 9 9 9 9 9 8 8 8 9 9 9 8 8 8 7 6 6 5
11 11 11 10 9 8 8 8 8 6 6 6 7 7 7 7 8 8 9 9 10 11 12 13 13 12 12 11 11 11 11 11 11 11 11 11 11 11 11 11 11 11 10 10 9 9 8 7 6
14 14 14 14 13 12 12 11 10 9 8 8 8 8 8 8 8 9 10 11 11 12 13 13 13 13 12 12 13 13 13 13 13 13 13 14 14 14 14 14 14 13 13 12 12 12 11 10 9
17 17 17 17 17 15 16 15 14 13 11 10 10 9 8 8 9 10 11 12 13 13 13 13 13 13 13 14 14 14 14 15 15 15 16 16 16 17 17 16 16 16 15 15 15 15 14 14 13
19 19 19 20 20 20 19 18 17 16 14 12 10 9 8 8 8 10 12 13 13 14 14 14 14 14 14 15 15 15 16 16 17 18 18 19 19 19 19 19 18 18 18 17 17 17 17 17 16
21 21 21 22 23 23 23 22 20 17 15 13 11 10 10 9 9 9 11 12 13 15 16 16 16 16 16 16 17 17 18 18 19 19 20 20 21 21 21 21 20 20 20 19 19 19 19 19 19
22 23 22 24 25 25 25 24 22 20 16 13 12 11 10 10 10 10 11 13 15 16 17 18 18 19 19 19 19 19 19 20 20 20 21 21 22 22 22 22 22 21 21 20 20 20 21 20 20
22 23 23 26 28 27 27 26 24 22 19 16 14 13 11 11 11 12 13 15 17 18 19 20 22 22 22 22 22 22 22 22 22 22 22 22 22 22 22 23 22 22 21 21 21 21 21 21 20
23 22 24 27 29 29 28 27 26 25 22 20 18 17 15 15 15 15 16 17 18 20 22 23 24 25 25 25 25 25 26 25 24 24 23 23 23 23 23 23 23 22 22 21 21 21 21 21 21
23 22 24 27 29 30 30 29 29 28 25 23 21 20 18 18 18 18 19 20 22 23 24 26 27 28 28 28 28 29 29 29 28 28 26 25 24 24 23 23 23 22 22 21 21 21 21 21 21
24 23 24 26 28 30 31 31 31 29 27 26 25 24 22 22 22 22 22 23 24 25 27 29 30 31 32 33 33 33 33 32 32 31 30 27 25 25 24 24 24 23 22 22 22 21 21 20 20
25 23 23 25 28 30 32 33 33 31 31 30 28 27 26 25 25 24 24 25 26 27 29 31 33 35 35 36 38 38 38 36 35 34 33 29 27 26 25 25 24 24 23 22 22 21 21 20 19
24 23 23 25 28 30 33 33 33 33 32 31 31 30 29 28 27 26 25 26 27 29 31 33 34 35 37 39 40 40 40 39 37 36 34 31 29 27 25 24 24 24 23 23 22 21 20 19 19
23 22 23 25 27 29 30 32 31 31 31 31 31 31 31 29 28 28 28 28 29 30 32 34 35 36 38 39 40 42 40 40 38 37 35 32 29 26 25 25 24 24 24 23 22 21 20 20 19
22 22 23 24 26 27 27 28 27 27 28 29 30 29 28 28 28 28 29 30 32 32 34 35 37 37 36 39 41 41 38 35 34 35 34 30 28 26 25 25 25 25 24 24 23 22 20 20 19
20 21 22 23 24 24 24 24 23 22 24 25 26 27 28 28 29 30 32 33 34 34 36 37 37 35 36 37 37 35 32 29 29 29 30 29 27 26 27 26 26 25 25 24 24 24 22 21 20
18 19 20 21 22 22 22 22 21 21 22 24 26 27 29 30 32 33 35 36 37 37 38 39 37 36 37 36 34 31 27 24 24 23 25 27 25 25 27 27 27 25 25 24 24 24 23 22 22
16 17 19 21 21 22 22 21 21 21 22 24 26 28 31 33 35 37 38 38 39 39 38 38 37 35 35 34 32 28 25 23 21 20 21 23 23 24 25 25 26 25 25 25 25 26 25 25 24
13 14 16 17 19 21 23 22 22 23 25 27 29 31 33 35 37 38 39 39 38 38 37 37 37 35 34 32 31 28 26 24 22 22 22 22 24 25 25 25 25 26 26 27 27 28 27 27 27
11 12 13 14 16 18 20 22 22 24 27 28 30 32 34 35 36 36 35 35 36 36 37 37 36 36 36 34 32 30 28 27 26 26 26 26 26 26 26 27 27 28 28 28 28 30 31 30 29
10 11 12 13 14 15 17 19 21 23 24 25 27 27 29 29 30 32 31 32 33 34 35 36 37 37 37 37 36 34 32 31 30 29 29 28 29 29 29 30 30 30 30 30 31 31 33 33 33
8 9 10 12 12 13 14 16 17 19 20 22 24 24 24 24 26 27 28 31 33 34 35 36 38 39 40 40 39 39 38 37 36 35 34 34 35 35 36 35 34 34 35 34 34 34 35 35 35
9 9 10 10 10 10 12 14 15 17 18 20 22 22 23 25 28 30 32 33 35 36 38 39 41 42 42 42 42 42 42 42 42 42 42 42 42 42 41 41 40 39 38 38 37 38 38 38 38
10 10 12 12 11 11 12 14 15 17 19 21 22 24 26 29 32 34 34 36 37 38 40 41 42 44 44 45 46 46 46 47 47 47 47 47 48 48 47 47 46 45 44 42 42 42 42 42 41
10 11 13 14 13 13 14 15 17 18 21 22 25 28 30 32 34 36 37 38 39 41 42 43 45 46 47 48 48 49 50 51 51 52 52 53 53 53 53 53 52 51 50 49 48 48 47 46 45
10 11 13 14 16 16 16 17 20 21 24 27 30 32 33 35 36 38 39 41 43 44 45 46 47 48 48 49 50 51 53 54 55 56 57 57 58 58 58 58 58 57 56 56 55 54 53 52 50
11 13 14 15 16 18 19 21 23 25 28 31 33 35 36 38 39 41 43 45 46 47 48 49 50 50 50 51 51 52 53 54 54 55 56 57 59 60 61 62 62 62 62 61 60 59 58 57 56
13 14 15 17 18 19 22 24 26 29 31 33 35 37 39 41 43 45 47 48 50 51 52 53 54 55 55 55 54 53 53 53 52 51 51 52 53 56 59 62 63 64 65 65 65 64 63 62 60
Wind_Direction
208 208 210 224 222 238 278 328 335 332 332 331 339 340 308 295 283 271 269 268 267 272 280 289 292 295 301 307 313 318 323 327 331 336 340 341 342 342 343 345 347 349 352 357 2 8 13 18 22
230 232 234 240 250 265 287 312 326 327 322 320 323 327 326 310 295 286 281 278 275 280 286 289 291 293 297 301 305 308 310 311 311 313 315 316 318 320 323 326 326 327 329 333 338 343 349 352 354
236 244 246 249 257 268 281 294 303 308 311 311 312 314 317 314 305 301 294 290 287 290 290 290 291 293 295 298 300 300 301 301 301 301 301 302 302 302 304 307 308 310 312 314 317 320 323 324 323
241 245 248 251 257 271 282 286 292 288 297 296 299 306 306 308 310 306 302 297 295 294 292 290 292 294 296 299 299 297 296 295 294 294 294 294 295 295 296 297 298 298 299 300 301 303 304 304 301
244 247 250 254 258 268 274 278 277 269 277 284 291 298 302 306 311 310 305 302 298 296 294 293 294 295 297 298 299 297 295 292 291 290 290 290 291 291 292 292 293 293 292 292 292 292 292 292 290
247 249 253 258 262 266 269 272 270 266 268 276 286 288 296 304 312 308 304 302 300 298 296 296 296 297 297 297 296 294 292 290 289 288 287 287 287 287 287 287 287 288 287 287 287 287 287 285 284
248 250 252 258 261 264 267 273 274 274 272 271 273 277 282 295 306 308 303 300 298 297 297 297 297 298 298 297 295 292 289 288 287 285 284 284 284 283 283 283 282 282 282 282 282 283 283 283 281
254 251 250 254 259 262 269 274 277 277 277 274 271 272 278 294 302 307 305 300 296 294 295 296 297 297 297 296 294 292 290 289 287 285 284 283 283 283 283 282 281 280 280 280 280 280 280 280 279
257 253 250 250 255 261 269 272 278 282 282 278 274 273 282 293 301 309 307 299 293 291 292 293 293 293 293 292 291 290 289 288 287 286 285 284 284 284 283 282 281 280 279 278 277 277 277 277 277
259 255 249 248 253 259 265 272 278 282 285 285 283 281 288 295 302 305 302 297 291 290 290 289 290 289 288 288 288 287 287 285 285 285 285 285 285 285 283 282 281 279 277 276 275 276 277 278 277
261 256 249 246 251 256 261 269 276 282 287 288 286 285 289 293 294 295 294 293 289 287 285 285 286 285 284 284 284 284 283 282 283 284 284 284 284 283 282 281 281 278 276 275 274 274 275 275 275
262 257 252 248 251 255 259 265 271 279 283 284 286 286 289 292 291 290 291 289 287 287 284 283 283 283 282 282 282 281 281 280 280 279 279 280 280 280 280 280 279 278 277 277 276 274 274 274 274
262 258 254 250 249 254 258 261 266 271 275 277 278 280 282 285 288 288 288 287 285 285 283 283 283 282 282 282 279 277 277 275 273 274 275 273 274 275 277 278 277 277 277 276 274 273 272 272 272
261 258 254 251 248 251 255 259 263 266 268 272 274 276 278 281 285 286 286 286 284 282 284 287 288 285 284 285 284 279 273 272 269 268 268 265 266 268 273 276 275 275 276 275 274 272 272 270 268
259 257 254 251 249 250 253 257 260 263 264 267 270 271 273 277 280 281 282 283 284 286 287 289 291 289 290 288 284 280 276 273 271 266 262 259 259 261 266 270 271 273 273 272 270 269 268 265 264
257 255 253 253 253 255 257 258 260 262 262 263 265 267 270 273 279 282 284 285 287 289 290 289 291 294 293 291 288 284 277 273 269 262 259 259 256 258 263 266 269 271 270 268 265 264 262 261 261
257 255 254 253 256 257 260 262 263 263 261 260 263 267 271 275 279 281 285 288 290 290 291 291 293 296 296 296 293 289 284 274 267 261 256 259 258 258 262 263 265 265 265 264 263 260 257 256 256
257 255 254 253 255 259 261 263 264 262 259 260 265 269 272 276 280 283 288 293 294 294 293 294 296 299 299 300 303 296 289 275 268 262 254 255 255 256 260 262 260 263 263 263 262 257 255 253 252
257 256 255 254 254 257 258 261 262 260 258 262 266 270 274 279 284 287 290 292 293 293 294 296 297 301 302 304 308 302 293 279 272 264 258 258 260 261 261 263 262 263 263 262 258 253 251 250 249
259 259 258 255 257 258 259 261 262 263 264 267 270 274 278 281 284 287 288 289 290 291 293 298 301 301 304 307 311 306 296 289 286 274 270 272 266 266 266 263 262 260 260 259 258 254 251 249 248
265 267 267 268 267 266 265 267 269 271 273 276 277 280 282 283 286 285 287 288 288 290 292 296 299 302 305 307 309 306 303 298 294 287 280 275 268 269 268 263 262 261 260 260 257 254 251 249 246
275 278 278 280 280 278 273 274 276 279 281 283 284 284 286 287 287 288 289 290 290 292 293 295 297 298 300 302 303 302 301 299 294 289 284 277 274 271 268 266 266 262 260 259 257 254 250 248 246
287 287 288 289 288 286 284 284 285 286 285 287 291 292 293 291 290 292 292 294 294 294 294 295 296 297 298 298 297 297 295 291 288 285 282 278 276 272 269 267 265 264 261 260 258 255 251 249 246
294 300 303 302 299 296 294 293 293 293 291 292 297 299 300 299 300 301 299 298 298 297 296 296 296 296 295 294 293 293 291 288 284 281 277 275 273 272 269 268 266 264 261 261 259 256 253 250 246
302 307 312 311 306 304 302 299 299 296 296 298 303 304 303 304 304 304 303 302 300 298 297 297 296 295 294 293 291 289 287 284 282 278 275 272 270 268 267 266 264 263 261 260 258 256 253 250 247
310 313 317 318 316 310 307 304 302 300 300 303 305 305 305 305 305 304 304 303 301 300 299 298 297 296 295 293 291 289 286 283 280 278 275 272 269 267 265 263 262 260 259 258 256 254 252 249 247
314 315 320 318 316 315 312 305 302 302 302 305 307 308 308 307 306 305 305 304 303 302 300 299 297 296 294 292 290 288 285 283 280 277 274 271 268 266 264 262 260 258 256 255 253 252 251 249 247
322 321 322 323 320 318 314 311 310 310 309 309 310 310 310 310 309 308 308 307 306 305 303 301 299 297 295 293 291 289 286 283 280 277 274 272 269 266 264 261 259 257 255 253 252 250 249 248 247
327 325 324 322 319 318 317 318 317 316 315 315 314 314 314 314 313 313 311 310 309 308 307 306 304 302 300 297 295 292 289 287 284 280 276 273 269 266 263 261 258 256 254 252 251 249 248 246 245
328 325 322 320 319 320 321 321 320 319 318 318 317 317 317 317 316 315 315 314 314 313 312 311 309 307 305 303 300 298 295 292 289 285 281 277 271 267 263 260 257 255 253 251 250 248 247 246 244
Height
5912 5912 5912 5913 5913 5912 5911 5911 5910 5909 5908 5908 5907 5907 5907 5907 5908 5910 5908 5907 5906 5906 5906 5906 5905 5905 5903 5902 5901 5900 5899 5898 5897 5897 5897 5896 5896 5896 5896 5895 5895 5895 5895 5894 5894 5894 5893 5893 5893
5912 5913 5914 5914 5913 5913 5913 5912 5910 5909 5909 5908 5908 5907 5907 5907 5907 5907 5907 5906 5906 5906 5905 5905 5905 5904 5902 5901 5900 5899 5898 5897 5897 5896 5896 5895 5895 5895 5895 5894 5894 5894 5894 5894 5893 5893 5893 5893 5892
5912 5912 5914 5913 5913 5913 5913 5912 5911 5910 5909 5909 5908 5908 5907 5907 5907 5907 5906 5906 5906 5905 5905 5904 5903 5902 5901 5900 5899 5898 5897 5897 5896 5895 5895 5894 5894 5893 5893 5893 5893 5893 5893 5892 5892 5892 5892 5892 5892
5912 5912 5913 5913 5912 5912 5911 5911 5910 5909 5909 5909 5908 5908 5907 5907 5907 5906 5906 5905 5905 5904 5904 5903 5902 5901 5900 5899 5898 5897 5896 5895 5895 5894 5894 5893 5892 5892 5892 5891 5891 5891 5891 5891 5891 5891 5891 5891 5891
5910 5911 5911 5910 5910 5910 5910 5910 5910 5909 5908 5908 5908 5907 5907 5906 5906 5905 5905 5905 5904 5904 5903 5902 5901 5900 5899 5897 5897 5896 5895 5894 5893 5893 5892 5891 5891 5890 5889 5889 5889 5889 5888 5889 5889 5889 5889 5889 5889
5909 5909 5909 5908 5908 5908 5907 5907 5907 5907 5907 5907 5907 5907 5906 5906 5905 5905 5904 5904 5903 5903 5902 5901 5899 5898 5897 5896 5894 5894 5893 5892 5891 5891 5890 5889 5888 5888 5887 5886 5886 5886 5886 5886 5886 5886 5886 5886 5886
5906 5906 5906 5906 5905 5905 5905 5905 5905 5905 5905 5905 5905 5905 5905 5905 5904 5904 5904 5903 5902 5902 5900 5899 5898 5896 5895 5894 5893 5891 5890 5890 5889 5888 5887 5886 5885 5885 5884 5884 5883 5883 5883 5882 5882 5883 5883 5883 5883
5903 5904 5903 5903 5902 5902 5902 5902 5902 5903 5903 5903 5903 5903 5903 5903 5903 5902 5902 5901 5901 5900 5899 5897 5896 5894 5893 5891 5890 5889 5888 5887 5886 5885 5884 5883 5882 5881 5881 5881 5880 5880 5879 5879 5879 5879 5879 5879 5879
5899 5901 5900 5899 5898 5899 5898 5899 5899 5900 5901 5901 5901 5901 5901 5901 5900 5900 5900 5899 5898 5897 5896 5895 5893 5892 5890 5888 5887 5886 5885 5884 5882 5881 5880 5879 5879 5878 5877 5877 5876 5876 5876 5876 5875 5875 5875 5875 5875
5896 5896 5897 5896 5895 5895 5895 5896 5897 5898 5898 5899 5899 5898 5898 5898 5897 5897 5897 5896 5895 5894 5893 5892 5890 5888 5886 5885 5884 5882 5881 5879 5878 5877 5876 5875 5874 5874 5873 5872 5872 5872 5871 5871 5871 5871 5870 5870 5871
5891 5893 5893 5892 5891 5892 5893 5893 5893 5894 5895 5896 5896 5895 5895 5895 5895 5894 5894 5893 5891 5890 5889 5887 5885 5884 5882 5881 5879 5878 5876 5874 5873 5872 5870 5870 5869 5869 5868 5868 5867 5867 5866 5866 5867 5867 5866 5866 5866
5887 5889 5888 5889 5888 5889 5890 5890 5890 5891 5892 5892 5891 5891 5891 5891 5891 5890 5889 5888 5887 5886 5884 5882 5881 5879 5877 5875 5874 5872 5870 5869 5868 5866 5865 5864 5864 5863 5863 5862 5862 5862 5862 5862 5862 5862 5862 5862 5862
5883 5884 5884 5885 5885 5885 5886 5886 5886 5887 5887 5886 5887 5887 5887 5887 5887 5886 5885 5883 5882 5880 5878 5876 5875 5873 5871 5869 5867 5865 5863 5861 5860 5859 5858 5857 5857 5857 5857 5857 5856 5856 5856 5856 5856 5857 5857 5857 5857
5878 5879 5880 5880 5880 5880 5881 5881 5881 5882 5882 5882 5882 5882 5882 5882 5882 5882 5880 5879 5877 5874 5872 5870 5868 5865 5863 5861 5859 5856 5853 5852 5851 5850 5849 5850 5849 5849 5850 5850 5850 5850 5850 5850 5850 5851 5851 5852 5852
5874 5875 5875 5875 5875 5875 5875 5876 5876 5876 5877 5877 5877 5877 5877 5877 5877 5876 5875 5873 5871 5868 5865 5863 5860 5857 5855 5852 5849 5846 5844 5842 5841 5841 5841 5841 5841 5842 5842 5843 5844 5844 5844 5844 5844 5845 5846 5846 5847
5869 5870 5870 5870 5870 5870 5872 5871 5871 5871 5872 5872 5872 5872 5872 5872 5871 5870 5869 5867 5865 5862 5858 5855 5852 5849 5846 5843 5839 5835 5831 5831 5831 5831 5831 5832 5833 5834 5835 5836 5837 5837 5838 5838 5839 5839 5840 5841 5842
5865 5866 5866 5866 5866 5866 5867 5866 5867 5867 5867 5867 5867 5868 5867 5867 5866 5865 5862 5860 5858 5855 5851 5848 5845 5841 5838 5835 5830 5824 5820 5821 5820 5820 5822 5824 5824 5825 5827 5829 5830 5831 5831 5832 5833 5834 5835 5836 5837
5861 5861 5861 5862 5862 5863 5863 5863 5863 5863 5863 5863 5864 5864 5863 5862 5861 5859 5856 5853 5850 5848 5844 5841 5837 5834 5831 5827 5822 5817 5813 5812 5812 5812 5814 5816 5817 5818 5820 5822 5822 5824 5825 5826 5827 5828 5829 5830 5831
5858 5858 5858 5859 5859 5859 5859 5859 5860 5860 5860 5860 5860 5859 5858 5857 5855 5852 5849 5847 5844 5841 5838 5834 5830 5827 5824 5820 5816 5811 5807 5806 5807 5807 5808 5810 5811 5813 5814 5815 5816 5817 5819 5819 5820 5821 5823 5824 5826
5855 5855 5855 5855 5855 5855 5855 5856 5856 5856 5856 5856 5855 5854 5853 5851 5849 5846 5843 5840 5837 5833 5830 5827 5823 5819 5817 5814 5810 5806 5803 5803 5803 5803 5803 5804 5806 5807 5807 5808 5809 5810 5811 5812 5813 5815 5816 5818 5820
5853 5853 5853 5853 5852 5852 5852 5853 5853 5852 5852 5851 5850 5848 5846 5844 5841 5838 5835 5832 5829 5826 5823 5820 5816 5813 5811 5809 5806 5802 5800 5800 5799 5798 5798 5798 5800 5800 5801 5801 5802 5803 5804 5805 5806 5808 5809 5811 5813
5851 5851 5851 5850 5850 5849 5849 5849 5849 5848 5846 5845 5844 5842 5839 5836 5833 5830 5827 5824 5822 5819 5816 5813 5809 5807 5805 5803 5801 5798 5797 5795 5795 5793 5793 5793 5794 5794 5794 5794 5795 5795 5796 5797 5798 5800 5802 5803 5805
5850 5849 5849 5848 5847 5847 5846 5846 5846 5843 5841 5840 5837 5835 5832 5829 5826 5823 5820 5818 5815 5812 5809 5805 5802 5800 5797 5795 5794 5792 5791 5790 5788 5787 5786 5786 5787 5787 5787 5787 5787 5788 5788 5789 5790 5792 5793 5795 5797
5848 5848 5847 5846 5845 5845 5844 5843 5842 5839 5837 5835 5832 5829 5826 5823 5820 5817 5814 5811 5808 5805 5802 5798 5795 5792 5790 5787 5785 5783 5781 5781 5780 5779 5778 5778 5777 5778 5778 5778 5778 5778 5779 5780 5781 5782 5784 5786 5788
5847 5847 5846 5845 5843 5843 5842 5840 5839 5835 5833 5830 5828 5824 5821 5818 5815 5812 5808 5805 5801 5797 5794 5790 5786 5783 5780 5777 5774 5772 5770 5769 5768 5767 5767 5766 5766 5766 5766 5767 5767 5768 5768 5769 5770 5772 5774 5776 5778
5845 5845 5844 5843 5842 5841 5839 5837 5836 5832 5829 5826 5823 5820 5817 5813 5809 5805 5801 5797 5793 5789 5784 5780 5776 5772 5768 5764 5761 5758 5756 5754 5753 5752 5751 5751 5751 5751 5752 5753 5754 5755 5756 5757 5759 5761 5762 5764 5767
5844 5843 5842 5840 5838 5837 5836 5834 5831 5828 5825 5822 5819 5815 5811 5806 5802 5797 5793 5788 5783 5779 5774 5769 5764 5760 5755 5751 5747 5743 5740 5738 5736 5735 5734 5733 5733 5734 5734 5736 5737 5739 5741 5743 5745 5747 5750 5752 5755
5842 5840 5839 5837 5835 5833 5832 5830 5827 5824 5820 5817 5813 5808 5804 5799 5794 5788 5783 5777 5772 5766 5761 5756 5750 5746 5741 5736 5731 5727 5723 5720 5717 5716 5714 5713 5713 5714 5715 5716 5718 5720 5723 5725 5728 5731 5734 5737 5741
5840 5839 5836 5834 5832 5830 5827 5827 5822 5818 5814 5810 5806 5801 5795 5790 5784 5778 5772 5766 5760 5753 5746 5740 5734 5729 5724 5719 5714 5710 5705 5701 5698 5695 5693 5692 5691 5692 5693 5694 5696 5699 5702 5706 5709 5713 5716 5720 5724
5838 5836 5834 5832 5829 5827 5824 5824 5817 5812 5808 5803 5798 5792 5786 5780 5774 5767 5760 5752 5745 5737 5730 5723 5716 5710 5704 5699 5695 5690 5685 5681 5678 5674 5672 5670 5669 5669 5670 5671 5674 5676 5680 5684 5688 5692 5696 5701 5706